| time (UTC) | temp F | wind direction | speed MPH | gust MPH | rain 1hr in | rain 24hr in | rain mn in | humidity % | barometer mb |
| 20260906075143 | 56 | 0 | 0.0 | 0.0 | 0.00 | 0.00 | 0.00 | 51 | 1016.8 |
| 20260906074122 | 56 | 243 | 0.0 | 1.0 | 0.00 | 0.00 | 0.00 | 49 | 1016.8 |
| 20260906073122 | 56 | 243 | 0.0 | 2.0 | 0.00 | 0.00 | 0.00 | 51 | 1016.7 |
| 20260906072122 | 57 | 0 | 0.0 | 0.0 | 0.00 | 0.00 | 0.00 | 51 | 1016.8 |
| 20260906071122 | 56 | 276 | 0.0 | 1.0 | 0.00 | 0.00 | 0.00 | 54 | 1016.6 |
| 20260906070143 | 56 | 276 | 0.0 | 1.0 | 0.00 | 0.00 | 0.00 | 50 | 1016.7 |
| 20260906065122 | 57 | 276 | 0.0 | 2.0 | 0.00 | 0.00 | 0.00 | 50 | 1016.6 |
| 20260906064122 | 58 | 280 | 1.0 | 2.0 | 0.00 | 0.00 | 0.00 | 49 | 1016.6 |
| 20260906063122 | 58 | 0 | 0.0 | 0.0 | 0.00 | 0.00 | 0.00 | 44 | 1016.5 |
| 20260906062122 | 57 | 332 | 0.0 | 1.0 | 0.00 | 0.00 | 0.00 | 46 | 1016.6 |
| 20260906061122 | 57 | 332 | 0.0 | 3.0 | 0.00 | 0.00 | 0.00 | 45 | 1016.4 |
| 20260906060122 | 57 | 336 | 0.0 | 3.0 | 0.00 | 0.00 | 0.00 | 48 | 1016.4 |
| 20260906055122 | 58 | 352 | 0.0 | 2.0 | 0.00 | 0.00 | 0.00 | 49 | 1016.3 |
| 20260906054122 | 58 | 352 | 0.0 | 2.0 | 0.00 | 0.00 | 0.00 | 48 | 1016.3 |
| 20260906053122 | 58 | 302 | 1.0 | 3.0 | 0.00 | 0.00 | 0.00 | 51 | 1016.3 |
| 20260906052122 | 59 | 324 | 1.0 | 3.0 | 0.00 | 0.00 | 0.00 | 48 | 1016.4 |
| 20260906051122 | 59 | 352 | 0.0 | 1.0 | 0.00 | 0.00 | 0.00 | 46 | 1016.4 |
| 20260906050122 | 59 | 300 | 1.0 | 6.0 | 0.00 | 0.00 | 0.00 | 46 | 1016.3 |
| 20260906045122 | 60 | 338 | 1.0 | 2.0 | 0.00 | 0.00 | 0.00 | 46 | 1016.4 |
| 20260906044143 | 60 | 0 | 0.0 | 1.0 | 0.00 | 0.00 | 0.00 | 42 | 1016.4 |
| 20260906043122 | 61 | 320 | 1.0 | 3.0 | 0.00 | 0.00 | 0.00 | 43 | 1016.3 |
| 20260906042122 | 62 | 313 | 0.0 | 2.0 | 0.00 | 0.00 | 0.00 | 42 | 1016.3 |
| 20260906041122 | 63 | 0 | 0.0 | 0.0 | 0.00 | 0.00 | 0.00 | 41 | 1016.2 |
| 20260906040122 | 63 | 0 | 0.0 | 0.0 | 0.00 | 0.00 | 0.00 | 40 | 1016.1 |
| 20260906035122 | 63 | 352 | 0.0 | 1.0 | 0.00 | 0.00 | 0.00 | 38 | 1016.0 |
| 20260906034122 | 63 | 339 | 2.0 | 4.0 | 0.00 | 0.00 | 0.00 | 39 | 1015.9 |
| 20260906033122 | 65 | 252 | 0.0 | 2.0 | 0.00 | 0.00 | 0.00 | 42 | 1015.8 |
| 20260906032122 | 66 | 0 | 0.0 | 0.0 | 0.00 | 0.00 | 0.00 | 35 | 1015.7 |
| 20260906031122 | 67 | 0 | 0.0 | 1.0 | 0.00 | 0.00 | 0.00 | 37 | 1015.6 |
| 20260906030122 | 68 | 250 | 0.0 | 1.0 | 0.00 | 0.00 | 0.00 | 35 | 1015.5 |
| 20260906025122 | 69 | 250 | 0.0 | 2.0 | 0.00 | 0.00 | 0.00 | 33 | 1015.4 |
| 20260906024143 | 71 | 0 | 0.0 | 1.0 | 0.00 | 0.00 | 0.00 | 30 | 1015.2 |
| 20260906023122 | 71 | 318 | 1.0 | 3.0 | 0.00 | 0.00 | 0.00 | 27 | 1015.1 |
| 20260906022122 | 72 | 284 | 0.0 | 3.0 | 0.00 | 0.00 | 0.00 | 29 | 1015.0 |
| 20260906021122 | 73 | 14 | 1.0 | 6.0 | 0.00 | 0.00 | 0.00 | 24 | 1014.9 |
| 20260906020122 | 74 | 0 | 0.0 | 0.0 | 0.00 | 0.00 | 0.00 | 22 | 1014.9 |
| 20260906015122 | 75 | 193 | 0.0 | 1.0 | 0.00 | 0.00 | 0.00 | 24 | 1015.0 |
| 20260906014122 | 77 | 193 | 0.0 | 1.0 | 0.00 | 0.00 | 0.00 | 22 | 1015.0 |
| 20260906013143 | 78 | 0 | 0.0 | 0.0 | 0.00 | 0.00 | 0.00 | 22 | 1015.0 |
| 20260906012122 | 80 | 193 | 0.0 | 1.0 | 0.00 | 0.00 | 0.00 | 21 | 1015.2 |
| 20260906011143 | 81 | 192 | 0.0 | 2.0 | 0.00 | 0.00 | 0.00 | 22 | 1015.2 |
| 20260906010122 | 82 | 0 | 0.0 | 0.0 | 0.00 | 0.00 | 0.00 | 20 | 1015.2 |
| 20260906005122 | 82 | 203 | 0.0 | 2.0 | 0.00 | 0.00 | 0.00 | 16 | 1015.2 |
| 20260906004122 | 82 | 204 | 0.0 | 2.0 | 0.00 | 0.00 | 0.00 | 17 | 1015.1 |
| 20260906003122 | 82 | 202 | 1.0 | 3.0 | 0.00 | 0.00 | 0.00 | 17 | 1015.2 |
| 20260906002122 | 83 | 198 | 4.0 | 10.0 | 0.00 | 0.00 | 0.00 | 19 | 1015.2 |
| 20260906001122 | 83 | 180 | 2.0 | 7.0 | 0.00 | 0.00 | 0.00 | 14 | 1015.2 |
| 20260906000122 | 83 | 173 | 4.0 | 8.0 | 0.00 | 0.00 | 0.00 | 13 | 1015.2 |
| 20260905235143 | 83 | 193 | 5.0 | 14.0 | 0.00 | 0.00 | 0.00 | 19 | 1015.3 |
| 20260905234122 | 83 | 183 | 5.0 | 12.0 | 0.00 | 0.00 | 0.00 | 14 | 1015.4 |
| 20260905233122 | 83 | 178 | 4.0 | 14.0 | 0.00 | 0.00 | 0.00 | 15 | 1015.5 |
| 20260905232122 | 83 | 174 | 5.0 | 14.0 | 0.00 | 0.00 | 0.00 | 15 | 1015.6 |
| 20260905231122 | 84 | 201 | 5.0 | 11.0 | 0.00 | 0.00 | 0.00 | 15 | 1015.4 |
| 20260905230143 | 84 | 199 | 7.0 | 16.0 | 0.00 | 0.00 | 0.00 | 14 | 1015.6 |
| 20260905225143 | 85 | 168 | 2.0 | 5.0 | 0.00 | 0.00 | 0.00 | 14 | 1015.6 |
| 20260905224122 | 85 | 202 | 3.0 | 6.0 | 0.00 | 0.00 | 0.00 | 15 | 1015.7 |
| 20260905223122 | 86 | 174 | 3.0 | 8.0 | 0.00 | 0.00 | 0.00 | 14 | 1015.8 |
| 20260905222143 | 86 | 131 | 2.0 | 7.0 | 0.00 | 0.00 | 0.00 | 17 | 1015.9 |
| 20260905221122 | 85 | 181 | 3.0 | 8.0 | 0.00 | 0.00 | 0.00 | 14 | 1015.9 |
| 20260905220122 | 85 | 208 | 5.0 | 10.0 | 0.00 | 0.00 | 0.00 | 21 | 1016.2 |
| 20260905215122 | 86 | 199 | 6.0 | 13.0 | 0.00 | 0.00 | 0.00 | 16 | 1016.3 |
| 20260905214122 | 86 | 198 | 3.0 | 7.0 | 0.00 | 0.00 | 0.00 | 15 | 1016.2 |
| 20260905213122 | 85 | 144 | 4.0 | 9.0 | 0.00 | 0.00 | 0.00 | 14 | 1016.4 |
| 20260905212122 | 86 | 204 | 5.0 | 9.0 | 0.00 | 0.00 | 0.00 | 14 | 1016.3 |
| 20260905211122 | 85 | 194 | 2.0 | 6.0 | 0.00 | 0.00 | 0.00 | 19 | 1016.4 |
| 20260905210122 | 85 | 198 | 4.0 | 11.0 | 0.00 | 0.00 | 0.00 | 17 | 1016.4 |
| 20260905205143 | 85 | 201 | 4.0 | 11.0 | 0.00 | 0.00 | 0.00 | 15 | 1016.4 |
| 20260905204143 | 85 | 199 | 4.0 | 10.0 | 0.00 | 0.00 | 0.00 | 16 | 1016.5 |
| 20260905203122 | 85 | 194 | 5.0 | 9.0 | 0.00 | 0.00 | 0.00 | 16 | 1016.6 |
| 20260905202122 | 84 | 203 | 3.0 | 9.0 | 0.00 | 0.00 | 0.00 | 20 | 1016.7 |
| 20260905201122 | 84 | 199 | 3.0 | 8.0 | 0.00 | 0.00 | 0.00 | 16 | 1016.8 |
| 20260905200122 | 84 | 205 | 3.0 | 11.0 | 0.00 | 0.00 | 0.00 | 16 | 1016.9 |
| 20260905195122 | 83 | 203 | 4.0 | 10.0 | 0.00 | 0.00 | 0.00 | 17 | 1017.0 |
| 20260905194143 | 83 | 197 | 6.0 | 12.0 | 0.00 | 0.00 | 0.00 | 21 | 1017.0 |
| 20260905193122 | 83 | 202 | 4.0 | 9.0 | 0.00 | 0.00 | 0.00 | 16 | 1017.1 |
| 20260905192122 | 83 | 198 | 3.0 | 9.0 | 0.00 | 0.00 | 0.00 | 21 | 1017.1 |
| 20260905191122 | 82 | 200 | 5.0 | 13.0 | 0.00 | 0.00 | 0.00 | 20 | 1017.3 |
| 20260905190122 | 81 | 209 | 5.0 | 11.0 | 0.00 | 0.00 | 0.00 | 17 | 1017.4 |
| 20260905185122 | 81 | 196 | 4.0 | 9.0 | 0.00 | 0.00 | 0.00 | 17 | 1017.5 |
| 20260905184122 | 81 | 202 | 4.0 | 13.0 | 0.00 | 0.00 | 0.00 | 18 | 1017.6 |
| 20260905183122 | 81 | 208 | 6.0 | 14.0 | 0.00 | 0.00 | 0.00 | 17 | 1017.8 |
| 20260905182122 | 80 | 201 | 6.0 | 11.0 | 0.00 | 0.00 | 0.00 | 16 | 1017.9 |
| 20260905181143 | 80 | 201 | 6.0 | 12.0 | 0.00 | 0.00 | 0.00 | 17 | 1017.8 |
| 20260905180143 | 80 | 199 | 6.0 | 11.0 | 0.00 | 0.00 | 0.00 | 18 | 1017.9 |
| 20260905175122 | 79 | 204 | 6.0 | 13.0 | 0.00 | 0.00 | 0.00 | 20 | 1018.0 |
| 20260905174122 | 79 | 200 | 5.0 | 12.0 | 0.00 | 0.00 | 0.00 | 19 | 1018.1 |
| 20260905173122 | 79 | 202 | 6.0 | 16.0 | 0.00 | 0.00 | 0.00 | 22 | 1018.2 |
| 20260905172122 | 79 | 199 | 5.0 | 10.0 | 0.00 | 0.00 | 0.00 | 19 | 1018.2 |
| 20260905171122 | 79 | 196 | 6.0 | 14.0 | 0.00 | 0.00 | 0.00 | 18 | 1018.0 |
| 20260905170122 | 78 | 195 | 5.0 | 10.0 | 0.00 | 0.00 | 0.00 | 21 | 1018.2 |
| 20260905165122 | 78 | 196 | 5.0 | 10.0 | 0.00 | 0.00 | 0.00 | 20 | 1018.0 |
| 20260905164122 | 78 | 197 | 5.0 | 11.0 | 0.00 | 0.00 | 0.00 | 17 | 1018.0 |
| 20260905163122 | 78 | 192 | 4.0 | 10.0 | 0.00 | 0.00 | 0.00 | 19 | 1017.7 |
| 20260905162143 | 77 | 204 | 4.0 | 9.0 | 0.00 | 0.00 | 0.00 | 20 | 1017.7 |
| 20260905161122 | 77 | 162 | 2.0 | 11.0 | 0.00 | 0.00 | 0.00 | 26 | 1017.7 |
| 20260905160122 | 75 | 128 | 1.0 | 3.0 | 0.00 | 0.00 | 0.00 | 26 | 1017.6 |
| 20260905155122 | 74 | 143 | 1.0 | 3.0 | 0.00 | 0.00 | 0.00 | 27 | 1017.5 |
| 20260905154122 | 71 | 144 | 0.0 | 2.0 | 0.00 | 0.00 | 0.00 | 29 | 1017.4 |
| 20260905153122 | 69 | 144 | 0.0 | 1.0 | 0.00 | 0.00 | 0.00 | 34 | 1017.5 |
| 20260905152122 | 68 | 145 | 1.0 | 3.0 | 0.00 | 0.00 | 0.00 | 37 | 1017.5 |
| 20260905151122 | 65 | 141 | 0.0 | 3.0 | 0.00 | 0.00 | 0.00 | 43 | 1017.5 |
| 20260905150122 | 63 | 148 | 0.0 | 1.0 | 0.00 | 0.00 | 0.00 | 44 | 1017.4 |
| 20260905145122 | 61 | 0 | 0.0 | 0.0 | 0.00 | 0.00 | 0.00 | 46 | 1017.5 |
| 20260905144122 | 60 | 0 | 0.0 | 0.0 | 0.00 | 0.00 | 0.00 | 55 | 1017.5 |
| 20260905143122 | 59 | 0 | 0.0 | 0.0 | 0.00 | 0.00 | 0.00 | 47 | 1017.4 |
| 20260905142122 | 58 | 0 | 0.0 | 0.0 | 0.00 | 0.00 | 0.00 | 45 | 1017.5 |
| 20260905141122 | 58 | 0 | 0.0 | 0.0 | 0.00 | 0.00 | 0.00 | 45 | 1017.6 |
| 20260905140122 | 58 | 0 | 0.0 | 0.0 | 0.00 | 0.00 | 0.00 | 47 | 1017.6 |
| 20260905135122 | 59 | 0 | 0.0 | 0.0 | 0.00 | 0.00 | 0.00 | 46 | 1017.4 |
| 20260905134122 | 60 | 0 | 0.0 | 0.0 | 0.00 | 0.00 | 0.00 | 44 | 1017.3 |
| 20260905133122 | 61 | 0 | 0.0 | 0.0 | 0.00 | 0.00 | 0.00 | 39 | 1016.8 |
| 20260905132122 | 61 | 0 | 0.0 | 0.0 | 0.00 | 0.00 | 0.00 | 39 | 1016.6 |
| 20260905131122 | 62 | 0 | 0.0 | 0.0 | 0.00 | 0.00 | 0.00 | 40 | 1016.6 |
| 20260905130122 | 63 | 0 | 0.0 | 1.0 | 0.00 | 0.00 | 0.00 | 38 | 1016.4 |
| 20260905125122 | 64 | 0 | 0.0 | 0.0 | 0.00 | 0.00 | 0.00 | 35 | 1016.4 |
| 20260905124122 | 65 | 0 | 0.0 | 0.0 | 0.00 | 0.00 | 0.00 | 34 | 1016.4 |
| 20260905123143 | 65 | 0 | 0.0 | 0.0 | 0.00 | 0.00 | 0.00 | 35 | 1016.3 |
| 20260905122122 | 66 | 0 | 0.0 | 0.0 | 0.00 | 0.00 | 0.00 | 32 | 1016.2 |
| 20260905120122 | 66 | 101 | 0.0 | 2.0 | 0.00 | 0.00 | 0.00 | 32 | 1016.1 |
| 20260905115122 | 66 | 113 | 1.0 | 3.0 | 0.00 | 0.00 | 0.00 | 32 | 1016.0 |
| 20260905114122 | 66 | 116 | 1.0 | 3.0 | 0.00 | 0.00 | 0.00 | 33 | 1016.1 |
| 20260905113122 | 66 | 115 | 1.0 | 3.0 | 0.00 | 0.00 | 0.00 | 33 | 1016.0 |
| 20260905112122 | 66 | 103 | 1.0 | 3.0 | 0.00 | 0.00 | 0.00 | 33 | 1016.0 |
| 20260905111143 | 65 | 134 | 1.0 | 3.0 | 0.00 | 0.00 | 0.00 | 35 | 1016.1 |
| 20260905110122 | 64 | 134 | 1.0 | 3.0 | 0.00 | 0.00 | 0.00 | 38 | 1016.0 |
| 20260905105122 | 63 | 135 | 1.0 | 3.0 | 0.00 | 0.00 | 0.00 | 39 | 1016.0 |
| 20260905104122 | 63 | 135 | 0.0 | 2.0 | 0.00 | 0.00 | 0.00 | 41 | 1016.0 |
| 20260905103122 | 64 | 135 | 0.0 | 2.0 | 0.00 | 0.00 | 0.00 | 41 | 1016.1 |
| 20260905102122 | 65 | 135 | 0.0 | 2.0 | 0.00 | 0.00 | 0.00 | 40 | 1016.1 |
| 20260905101143 | 65 | 136 | 0.0 | 1.0 | 0.00 | 0.00 | 0.00 | 39 | 1016.1 |
| 20260905100122 | 65 | 135 | 0.0 | 2.0 | 0.00 | 0.00 | 0.00 | 38 | 1015.9 |
| 20260905095122 | 66 | 134 | 0.0 | 1.0 | 0.00 | 0.00 | 0.00 | 38 | 1015.7 |
| 20260905094143 | 66 | 137 | 1.0 | 4.0 | 0.00 | 0.00 | 0.00 | 37 | 1015.6 |
| 20260905093122 | 67 | 129 | 1.0 | 4.0 | 0.00 | 0.00 | 0.00 | 36 | 1015.5 |
| 20260905092122 | 67 | 134 | 0.0 | 2.0 | 0.00 | 0.00 | 0.00 | 37 | 1015.4 |
| 20260905091122 | 68 | 143 | 1.0 | 5.0 | 0.00 | 0.00 | 0.00 | 36 | 1015.3 |
| 20260905090143 | 68 | 117 | 1.0 | 4.0 | 0.00 | 0.00 | 0.00 | 35 | 1015.2 |
| 20260905085122 | 68 | 136 | 0.0 | 3.0 | 0.00 | 0.00 | 0.00 | 35 | 1015.1 |
| 20260905084122 | 68 | 115 | 1.0 | 2.0 | 0.00 | 0.00 | 0.00 | 36 | 1015.1 |
| 20260905083122 | 68 | 101 | 1.0 | 4.0 | 0.00 | 0.00 | 0.00 | 35 | 1014.9 |
| 20260905082122 | 68 | 127 | 0.0 | 3.0 | 0.00 | 0.00 | 0.00 | 36 | 1015.0 |
| 20260905081122 | 68 | 143 | 1.0 | 4.0 | 0.00 | 0.00 | 0.00 | 33 | 1014.9 |
| 20260905080122 | 67 | 154 | 1.0 | 3.0 | 0.00 | 0.00 | 0.00 | 38 | 1015.0 |